FW5161 Weather Reports


Display with metric or nautical units.
time (UTC)temp
F
wind
direction
speed
MPH
gust
MPH
rain 1hr
in
rain 24hr
in
rain mn
in
humidity
%
barometer
mb
20260903071930 57 128 4.0 15.0 0.00 0.08 0.00 85 1004.4
20260903071430 57 134 4.0 15.0 0.00 0.08 0.00 85 1004.4
20260903070929 57 99 3.0 8.0 0.00 0.08 0.00 85 1004.4
20260903070429 57 86 3.0 8.0 0.00 0.08 0.00 86 1004.5
20260903070154 57 127 3.0 9.0 0.00 0.08 0.08 85 1004.5
20260903065434 57 190 3.0 9.0 0.00 0.08 0.08 86 1004.4
20260903064931 57 93 3.0 8.0 0.00 0.08 0.08 86 1004.4
20260903064429 57 31 3.0 11.0 0.00 0.08 0.08 86 1004.4
20260903063929 57 115 4.0 11.0 0.00 0.08 0.08 86 1004.4
20260903063428 57 92 4.0 13.0 0.00 0.08 0.08 86 1004.4
20260903062929 57 142 4.0 13.0 0.00 0.08 0.08 86 1004.3
20260903062433 57 151 4.0 12.0 0.00 0.08 0.08 87 1004.5
20260903061929 57 155 5.0 12.0 0.00 0.08 0.08 87 1004.6
20260903061429 57 139 4.0 10.0 0.00 0.08 0.08 87 1004.6
20260903060929 57 93 5.0 15.0 0.00 0.08 0.08 87 1004.5
20260903060423 57 101 5.0 15.0 0.00 0.08 0.08 87 1004.5
20260903055917 57 62 6.0 17.0 0.00 0.08 0.08 87 1004.5
20260903055410 57 123 6.0 17.0 0.00 0.08 0.08 87 1004.5
20260903055137 57 90 5.0 20.0 0.00 0.08 0.08 87 1004.5
20260903054411 57 101 4.0 20.0 0.00 0.08 0.08 87 1004.6
20260903053640 57 134 6.0 15.0 0.00 0.08 0.08 87 1004.6
20260903052910 57 89 5.0 17.0 0.00 0.08 0.08 87 1004.5
20260903052411 57 99 6.0 17.0 0.00 0.08 0.08 87 1004.6
20260903051910 57 101 8.0 17.0 0.00 0.08 0.08 87 1004.6
20260903051412 57 178 8.0 17.0 0.00 0.08 0.08 87 1004.5
20260903050911 57 100 7.0 15.0 0.00 0.08 0.08 87 1004.3
20260903050411 57 79 6.0 13.0 0.00 0.08 0.08 87 1004.3
20260903045912 57 94 8.0 17.0 0.00 0.08 0.08 86 1004.3
20260903044911 57 102 7.0 19.0 0.00 0.08 0.08 85 1004.3
20260903044639 57 81 8.0 19.0 0.00 0.08 0.08 85 1004.2
20260903044133 57 207 9.0 19.0 0.00 0.08 0.08 84 1004.3
20260903043407 57 100 7.0 16.0 0.00 0.08 0.08 84 1004.1
20260903042406 58 115 8.0 17.0 0.00 0.08 0.08 83 1003.8
20260903042133 58 117 9.0 16.0 0.00 0.08 0.08 82 1003.7
20260903041407 57 139 9.0 14.0 0.00 0.08 0.08 83 1003.6
20260903040906 57 120 8.0 14.0 0.00 0.08 0.08 83 1003.6
20260903040407 57 143 7.0 13.0 0.00 0.08 0.08 84 1003.4
20260903035907 57 139 7.0 11.0 0.00 0.08 0.08 84 1003.3
20260903035407 57 139 7.0 13.0 0.00 0.08 0.08 83 1003.1
20260903034903 57 128 7.0 14.0 0.00 0.08 0.08 84 1002.9
20260903034402 58 152 7.0 14.0 0.00 0.08 0.08 82 1002.9
20260903033904 58 140 7.0 11.0 0.00 0.08 0.08 83 1002.9
20260903033403 58 156 6.0 11.0 0.00 0.08 0.08 82 1002.8
20260903033123 58 146 7.0 12.0 0.00 0.08 0.08 83 1002.7
20260903032403 58 189 8.0 14.0 0.00 0.08 0.08 83 1002.6
20260903031903 58 106 8.0 18.0 0.00 0.08 0.08 84 1002.5
20260903031403 58 137 7.0 18.0 0.00 0.08 0.08 84 1002.4
20260903031125 58 105 6.0 13.0 0.00 0.08 0.08 85 1002.4
20260903030627 58 114 6.0 17.0 0.00 0.08 0.08 84 1002.3
20260903025901 59 151 8.0 17.0 0.00 0.08 0.08 84 1002.3
20260903025401 59 110 7.0 17.0 0.00 0.08 0.08 84 1002.2
20260903024902 59 82 7.0 20.0 0.00 0.08 0.08 85 1002.1
20260903024630 59 102 8.0 20.0 0.00 0.08 0.08 84 1001.9
20260903023901 59 105 10.0 22.0 0.00 0.08 0.08 84 1001.9
20260903023401 59 108 9.0 22.0 0.00 0.08 0.08 84 1001.5
20260903022904 59 77 9.0 21.0 0.00 0.08 0.08 84 1001.3
20260903022404 59 128 8.0 23.0 0.00 0.08 0.08 84 1001.2
20260903021904 59 99 7.0 23.0 0.00 0.08 0.08 84 1001.3
20260903021402 59 93 7.0 19.0 0.00 0.08 0.08 84 1000.9
20260903021130 59 93 6.0 19.0 0.00 0.08 0.08 85 1000.8
20260903020402 59 122 5.0 15.0 0.00 0.08 0.08 85 1000.8
20260903015901 59 80 6.0 20.0 0.00 0.08 0.08 85 1000.7
20260903015401 59 42 6.0 20.0 0.00 0.08 0.08 85 1000.8
20260903014902 59 98 5.0 12.0 0.00 0.08 0.08 85 1000.5
20260903014401 59 100 5.0 13.0 0.00 0.08 0.08 85 1000.4
20260903013901 59 116 3.0 13.0 0.00 0.08 0.08 86 1000.3
20260903013401 58 303 6.0 27.0 0.00 0.08 0.08 86 1000.3
20260903012900 59 105 8.0 27.0 0.01 0.08 0.08 86 1000.2
20260903012402 58 110 7.0 21.0 0.01 0.08 0.08 86 1000.2
20260903011901 58 123 6.0 15.0 0.02 0.08 0.08 87 999.8
20260903011402 58 123 6.0 16.0 0.03 0.08 0.08 88 1000.1
20260903010900 58 77 6.0 17.0 0.04 0.08 0.08 89 999.9
20260903010401 58 139 6.0 17.0 0.05 0.08 0.08 89 999.9
20260903010125 57 114 6.0 16.0 0.05 0.08 0.08 89 1000.0
20260903005619 57 359 7.0 16.0 0.06 0.08 0.08 89 1000.1
20260903004900 57 55 8.0 16.0 0.07 0.08 0.08 89 1000.0
20260903004401 57 133 7.0 18.0 0.07 0.08 0.08 89 999.9
20260903003900 57 222 6.0 18.0 0.07 0.08 0.08 90 1000.1
20260903003401 57 58 6.0 16.0 0.08 0.08 0.08 90 1000.3
20260903003122 57 68 5.0 13.0 0.07 0.07 0.07 90 1000.4
20260903002401 57 105 4.0 13.0 0.07 0.07 0.07 89 1000.4
20260903001859 57 334 3.0 13.0 0.06 0.06 0.06 89 1000.3
20260903001353 57 49 3.0 9.0 0.05 0.05 0.05 89 1000.5
20260903000848 58 21 4.0 9.0 0.04 0.04 0.04 89 1000.4
20260903000342 58 359 5.0 12.0 0.03 0.03 0.03 87 1000.4
20260902235836 58 349 4.0 12.0 0.03 0.03 0.03 87 1000.4
20260902235332 58 25 4.0 14.0 0.02 0.02 0.02 86 1000.5
20260902234832 59 33 4.0 14.0 0.01 0.01 0.01 86 1000.4
20260902234553 59 39 5.0 14.0 0.01 0.01 0.01 84 1000.5
20260902233833 60 44 5.0 14.0 0.01 0.01 0.00 82 1000.7
20260902233333 60 332 4.0 15.0 0.00 0.00 0.00 81 1000.6
20260902232834 61 81 4.0 15.0 0.00 0.00 0.00 78 1000.6
20260902232332 62 90 4.0 11.0 0.00 0.00 0.00 77 1000.7
20260902231830 62 60 4.0 11.0 0.00 0.00 0.00 76 1000.6
20260902231330 63 18 5.0 13.0 0.00 0.00 0.00 75 1000.5
20260902230830 63 95 6.0 18.0 0.00 0.00 0.00 74 1000.5
20260902230328 63 318 5.0 18.0 0.00 0.00 0.00 72 1000.7
20260902225829 63 13 5.0 13.0 0.00 0.00 0.00 72 1000.7
20260902225329 64 341 5.0 18.0 0.00 0.00 0.00 72 1000.6
20260902224829 64 35 4.0 18.0 0.00 0.00 0.00 71 1000.7
20260902224329 64 114 4.0 11.0 0.00 0.00 0.00 70 1000.7
20260902223829 64 32 4.0 11.0 0.00 0.00 0.00 70 1000.5
20260902223330 65 80 3.0 10.0 0.00 0.00 0.00 70 1000.4
20260902222826 65 325 4.0 13.0 0.00 0.00 0.00 70 1000.6
20260902222320 65 10 6.0 20.0 0.00 0.00 0.00 69 1000.5
20260902221814 65 24 6.0 20.0 0.00 0.00 0.00 69 1000.8
20260902221308 65 112 4.0 16.0 0.00 0.00 0.00 68 1000.8
20260902220802 65 4 4.0 9.0 0.00 0.00 0.00 69 1000.8
20260902220302 65 60 3.0 11.0 0.00 0.00 0.00 69 1000.9
20260902215802 65 48 3.0 11.0 0.00 0.00 0.00 69 1000.8
20260902215306 66 13 4.0 15.0 0.00 0.00 0.00 68 1001.0
20260902214802 66 336 4.0 15.0 0.00 0.00 0.00 67 1000.9
20260902214301 66 70 3.0 10.0 0.00 0.00 0.00 66 1000.9
20260902213802 67 16 3.0 10.0 0.00 0.00 0.00 65 1000.9
20260902213301 66 356 4.0 10.0 0.00 0.00 0.00 65 1001.0
20260902212805 66 125 4.0 10.0 0.00 0.00 0.00 64 1001.1
20260902212305 67 345 4.0 13.0 0.00 0.00 0.00 63 1001.2
20260902211803 67 101 4.0 13.0 0.00 0.00 0.00 62 1001.1
20260902211303 67 87 4.0 10.0 0.00 0.00 0.00 61 1000.9
20260902210804 67 41 4.0 11.0 0.00 0.00 0.00 62 1000.9
20260902210530 67 65 4.0 11.0 0.00 0.00 0.00 61 1000.8
20260902205802 67 182 4.0 11.0 0.00 0.00 0.00 62 1000.8
20260902205302 67 349 5.0 16.0 0.00 0.00 0.00 62 1000.9
20260902204801 67 276 4.0 16.0 0.00 0.00 0.00 62 1001.0
20260902204530 67 147 5.0 15.0 0.00 0.00 0.00 62 1001.0
20260902203802 67 359 7.0 24.0 0.00 0.00 0.00 62 1001.1
20260902203542 67 90 7.0 24.0 0.00 0.00 0.00 61 1001.1
20260902202802 68 101 5.0 22.0 0.00 0.00 0.00 61 1001.1
20260902201801 67 93 6.0 16.0 0.00 0.00 0.00 61 1001.2
20260902201302 67 78 6.0 15.0 0.00 0.00 0.00 61 1001.2
20260902200802 68 119 5.0 13.0 0.00 0.00 0.00 60 1001.1
20260902200301 69 65 4.0 13.0 0.00 0.00 0.00 60 1001.2
20260902195802 68 68 5.0 14.0 0.00 0.00 0.00 62 1001.2
20260902195302 68 122 5.0 14.0 0.00 0.00 0.00 62 1001.3
20260902194801 68 17 5.0 13.0 0.00 0.00 0.00 62 1001.4
20260902194302 68 357 4.0 11.0 0.00 0.00 0.00 61 1001.4
20260902193801 68 98 3.0 11.0 0.00 0.00 0.00 62 1001.4
20260902193302 68 84 4.0 12.0 0.00 0.00 0.00 62 1001.5
20260902193032 68 68 4.0 12.0 0.00 0.00 0.00 61 1001.5
20260902192301 69 324 4.0 18.0 0.00 0.00 0.00 62 1001.7
20260902191801 67 51 5.0 18.0 0.00 0.00 0.00 63 1001.8
20260902191301 67 135 4.0 13.0 0.00 0.00 0.00 63 1001.8
20260902190800 67 309 4.0 13.0 0.00 0.00 0.00 63 1002.1
20260902190301 67 305 3.0 14.0 0.00 0.00 0.00 64 1001.8
20260902185801 66 346 5.0 14.0 0.00 0.00 0.00 66 1002.0
20260902185301 66 306 5.0 13.0 0.00 0.00 0.00 68 1002.2
20260902184804 66 318 4.0 13.0 0.00 0.00 0.00 67 1002.5
20260902184305 66 355 4.0 10.0 0.00 0.00 0.00 68 1002.5
20260902183801 66 314 3.0 10.0 0.00 0.00 0.00 67 1002.5
20260902183531 67 343 4.0 12.0 0.00 0.00 0.00 68 1002.6
20260902182802 66 358 5.0 12.0 0.00 0.00 0.00 67 1002.6
20260902182300 67 96 5.0 12.0 0.00 0.00 0.00 67 1002.7
20260902181801 66 253 4.0 12.0 0.00 0.00 0.00 67 1002.7
20260902181301 66 38 4.0 13.0 0.00 0.00 0.00 67 1002.8
20260902180801 66 83 3.0 13.0 0.00 0.00 0.00 69 1002.8
20260902180535 65 358 3.0 8.0 0.00 0.00 0.00 70 1002.8
20260902175802 65 84 3.0 8.0 0.00 0.00 0.00 69 1002.8
20260902175307 65 89 4.0 14.0 0.00 0.00 0.00 70 1002.8
20260902174802 64 227 5.0 14.0 0.00 0.00 0.00 71 1002.8
20260902174301 65 256 4.0 14.0 0.00 0.00 0.00 70 1002.9
20260902173804 64 272 4.0 14.0 0.00 0.00 0.00 71 1003.0
20260902173303 64 211 3.0 12.0 0.00 0.00 0.00 71 1002.9
20260902172804 64 326 3.0 11.0 0.00 0.00 0.00 73 1002.9
20260902172308 64 319 3.0 14.0 0.00 0.00 0.00 72 1003.0
20260902171803 64 332 2.0 14.0 0.00 0.00 0.00 73 1003.0
20260902171301 64 60 3.0 9.0 0.00 0.00 0.00 73 1003.1
20260902170800 64 97 3.0 9.0 0.00 0.00 0.00 72 1003.1
20260902170301 64 33 3.0 8.0 0.00 0.00 0.00 74 1003.3
20260902165801 63 66 3.0 6.0 0.00 0.00 0.00 75 1003.3
20260902165308 63 314 4.0 11.0 0.00 0.00 0.00 74 1003.3
20260902164809 63 342 5.0 11.0 0.00 0.00 0.00 75 1003.2
20260902164304 64 301 4.0 9.0 0.00 0.00 0.00 74 1003.3
20260902163802 64 306 4.0 9.0 0.00 0.00 0.00 74 1003.2
20260902163301 64 285 4.0 12.0 0.00 0.00 0.00 76 1003.2
20260902163028 62 336 3.0 12.0 0.00 0.00 0.00 77 1003.2
20260902162522 62 308 2.0 8.0 0.00 0.00 0.00 77 1003.3
20260902161802 62 20 3.0 17.0 0.00 0.00 0.00 77 1003.2
20260902161301 62 31 4.0 17.0 0.00 0.00 0.00 77 1003.3
20260902160801 62 316 3.0 15.0 0.00 0.00 0.00 77 1003.3
20260902160303 62 39 3.0 12.0 0.00 0.00 0.00 78 1003.3
20260902155801 62 61 4.0 12.0 0.00 0.00 0.00 77 1003.4
20260902155301 62 353 5.0 16.0 0.00 0.00 0.00 78 1003.3
20260902154801 62 222 4.0 16.0 0.00 0.00 0.00 78 1003.4
20260902154301 62 37 3.0 11.0 0.00 0.00 0.00 78 1003.6
20260902154033 62 87 4.0 13.0 0.00 0.00 0.00 77 1003.5
20260902153300 62 116 4.0 13.0 0.00 0.00 0.00 78 1003.5
20260902152801 61 91 4.0 11.0 0.00 0.00 0.00 78 1003.5
20260902152301 61 78 4.0 8.0 0.00 0.00 0.00 79 1003.5
20260902151801 61 328 3.0 7.0 0.00 0.00 0.00 78 1003.5
20260902151301 61 305 2.0 7.0 0.00 0.00 0.00 78 1003.4
20260902150800 61 353 2.0 9.0 0.00 0.00 0.00 78 1003.5
20260902150528 61 33 3.0 10.0 0.00 0.00 0.00 78 1003.5
20260902145804 61 345 3.0 10.0 0.00 0.00 0.00 79 1003.6
20260902145301 61 321 2.0 8.0 0.00 0.00 0.00 79 1003.7
20260902144801 61 358 2.0 8.0 0.00 0.00 0.00 80 1003.7
20260902144304 61 46 3.0 10.0 0.00 0.00 0.00 80 1003.8
20260902143805 61 303 3.0 10.0 0.00 0.00 0.00 80 1003.8
20260902143300 61 355 3.0 10.0 0.00 0.00 0.00 80 1003.8
20260902143025 61 200 3.0 10.0 0.00 0.00 0.00 80 1003.8
20260902142301 60 120 2.0 7.0 0.00 0.00 0.00 80 1003.7
20260902142021 60 135 3.0 9.0 0.00 0.00 0.00 81 1003.7
20260902141301 60 85 3.0 11.0 0.00 0.00 0.00 81 1003.7
20260902140804 60 168 4.0 11.0 0.00 0.00 0.00 81 1003.8
20260902140529 60 126 7.0 18.0 0.00 0.00 0.00 82 1003.8
20260902135801 60 90 8.0 18.0 0.00 0.00 0.00 82 1003.8
20260902135300 60 6 7.0 21.0 0.00 0.00 0.00 82 1003.9
20260902134801 60 97 8.0 21.0 0.00 0.00 0.00 82 1003.9
20260902134301 60 68 8.0 18.0 0.00 0.00 0.00 82 1004.0
20260902133800 60 106 9.0 18.0 0.00 0.00 0.00 82 1004.0
20260902133301 60 115 9.0 21.0 0.00 0.00 0.00 83 1003.9
20260902132801 60 145 8.0 21.0 0.00 0.00 0.00 83 1003.9
20260902132301 60 108 9.0 19.0 0.00 0.00 0.00 83 1004.0
20260902131801 60 91 11.0 19.0 0.00 0.00 0.00 82 1003.9
20260902131301 60 78 11.0 25.0 0.00 0.00 0.00 83 1003.8
20260902130803 60 95 10.0 25.0 0.00 0.00 0.00 83 1003.8
20260902130301 60 82 9.0 18.0 0.00 0.00 0.00 83 1003.9
20260902130026 60 95 9.0 17.0 0.00 0.00 0.00 82 1003.9
20260902125305 60 110 9.0 21.0 0.00 0.00 0.00 82 1004.0
20260902124800 60 90 8.0 21.0 0.00 0.00 0.00 83 1003.9
20260902124301 60 68 7.0 18.0 0.00 0.00 0.00 83 1004.1
20260902123800 60 77 8.0 19.0 0.00 0.00 0.00 82 1004.2
20260902123300 60 155 7.0 19.0 0.00 0.00 0.00 82 1004.1
20260902122802 60 134 8.0 19.0 0.00 0.00 0.00 82 1004.2
20260902122301 60 97 9.0 19.0 0.00 0.00 0.00 82 1004.2
20260902121805 60 154 8.0 18.0 0.00 0.00 0.00 82 1004.2
20260902121303 60 94 8.0 17.0 0.00 0.00 0.00 81 1004.4
20260902120801 60 56 8.0 17.0 0.00 0.00 0.00 81 1004.4
20260902120527 60 103 8.0 23.0 0.00 0.00 0.00 81 1004.4
20260902115801 60 130 8.0 23.0 0.00 0.00 0.00 81 1004.5
20260902115301 60 76 8.0 18.0 0.00 0.00 0.00 80 1004.4
20260902114800 60 109 9.0 24.0 0.00 0.00 0.00 80 1004.6
20260902114300 60 124 9.0 24.0 0.00 0.00 0.00 80 1004.5
20260902114021 60 143 7.0 17.0 0.00 0.00 0.00 80 1004.7
20260902113259 60 105 7.0 17.0 0.00 0.00 0.00 80 1004.7
20260902112758 60 121 8.0 20.0 0.00 0.00 0.00 79 1004.8
20260902112252 60 82 9.0 21.0 0.00 0.00 0.00 79 1004.8
20260902111747 60 116 9.0 21.0 0.00 0.00 0.00 79 1004.9
20260902111240 60 107 9.0 21.0 0.00 0.00 0.00 79 1005.0
20260902110734 60 152 9.0 19.0 0.00 0.00 0.00 79 1005.0
20260902110231 60 153 9.0 20.0 0.00 0.00 0.00 79 1005.0
20260902105730 60 143 9.0 20.0 0.00 0.00 0.00 79 1005.2
20260902105230 60 184 9.0 24.0 0.00 0.00 0.00 79 1005.3
20260902104730 60 119 9.0 24.0 0.00 0.00 0.00 79 1005.3
20260902104229 60 125 9.0 21.0 0.00 0.00 0.00 79 1005.2
20260902103730 60 110 9.0 21.0 0.00 0.00 0.00 80 1005.3
20260902103229 60 85 8.0 21.0 0.00 0.00 0.00 80 1005.3
20260902102730 60 80 9.0 21.0 0.00 0.00 0.00 80 1005.3
20260902102229 60 127 8.0 19.0 0.00 0.00 0.00 80 1005.4
20260902101730 60 147 8.0 16.0 0.00 0.00 0.00 80 1005.3
20260902101228 60 100 8.0 16.0 0.00 0.00 0.00 80 1005.6
20260902100729 60 114 9.0 21.0 0.00 0.00 0.00 80 1005.4
20260902100229 60 139 9.0 24.0 0.00 0.00 0.00 81 1005.5
20260902095729 60 124 9.0 24.0 0.00 0.00 0.00 81 1005.4
20260902095230 60 139 9.0 20.0 0.00 0.00 0.00 81 1005.6
20260902094733 60 132 8.0 18.0 0.00 0.00 0.00 82 1005.5
20260902093956 60 125 8.0 17.0 0.00 0.00 0.00 82 1005.6
20260902093229 60 90 8.0 19.0 0.00 0.00 0.00 83 1005.5
20260902092957 60 127 7.0 19.0 0.00 0.00 0.00 83 1005.6
20260902092231 60 103 5.0 14.0 0.00 0.00 0.00 83 1005.7
20260902091956 60 60 4.0 14.0 0.00 0.00 0.00 83 1005.9
20260902091457 60 195 3.0 11.0 0.00 0.00 0.00 84 1005.9
20260902090729 60 124 3.0 10.0 0.00 0.00 0.00 84 1006.0
20260902090229 60 91 3.0 10.0 0.00 0.00 0.00 84 1006.1
20260902085729 60 335 2.0 7.0 0.00 0.00 0.00 84 1006.0
20260902085229 60 325 2.0 7.0 0.00 0.00 0.00 84 1006.1
20260902085000 60 77 2.0 7.0 0.00 0.00 0.00 84 1006.2
20260902084230 60 281 2.0 6.0 0.00 0.00 0.00 84 1006.2
20260902083729 60 290 2.0 5.0 0.00 0.00 0.00 84 1006.2
20260902083500 60 320 2.0 5.0 0.00 0.00 0.00 84 1006.3
20260902082730 60 303 3.0 11.0 0.00 0.00 0.00 84 1006.3
20260902082502 60 6 3.0 11.0 0.00 0.00 0.00 84 1006.4
20260902081733 60 137 4.0 14.0 0.00 0.00 0.00 84 1006.3
20260902081457 60 58 4.0 18.0 0.00 0.00 0.00 84 1006.3
20260902080730 60 191 3.0 18.0 0.00 0.00 0.00 84 1006.3
20260902080229 60 285 3.0 10.0 0.00 0.00 0.00 84 1006.4
20260902075729 60 184 3.0 12.0 0.00 0.00 0.00 83 1006.5
20260902075229 60 20 4.0 12.0 0.00 0.00 0.00 84 1006.5
20260902074729 60 149 4.0 12.0 0.00 0.00 0.00 84 1006.6
20260902074228 60 37 3.0 17.0 0.00 0.00 0.00 84 1006.5
20260902073729 60 218 3.0 17.0 0.00 0.00 0.00 84 1006.6
20260902073229 60 51 3.0 10.0 0.00 0.00 0.00 84 1006.6
20260902072729 60 347 3.0 12.0 0.00 0.00 0.00 84 1006.6
20260902072229 60 349 3.0 12.0 0.00 0.00 0.00 84 1006.6